| time (UTC) | temp F | wind direction | speed knots | gust knots | rain 1hr in | rain 24hr in | rain mn in | humidity % | barometer mb |
| 20260903041601 | 57 | 0 | 0.0 | 1.7 | 0.00 | 0.21 | 0.21 | 85 | 1007.8 |
| 20260903040104 | 57 | 212 | 0.0 | 0.9 | 0.00 | 0.21 | 0.21 | 86 | 1007.8 |
| 20260903034554 | 57 | 0 | 0.0 | 0.9 | 0.00 | 0.21 | 0.21 | 86 | 1007.5 |
| 20260903033103 | 57 | 0 | 0.0 | 0.0 | 0.00 | 0.21 | 0.21 | 86 | 1007.3 |
| 20260903031557 | 58 | 0 | 0.0 | 0.9 | 0.00 | 0.21 | 0.21 | 86 | 1007.2 |
| 20260903030059 | 58 | 0 | 0.0 | 1.7 | 0.00 | 0.21 | 0.21 | 85 | 1007.0 |
| 20260903024557 | 59 | 170 | 0.0 | 0.9 | 0.00 | 0.21 | 0.21 | 84 | 1006.9 |
| 20260903023057 | 59 | 0 | 0.0 | 1.7 | 0.00 | 0.21 | 0.21 | 82 | 1006.7 |
| 20260903021605 | 60 | 187 | 0.9 | 4.3 | 0.01 | 0.21 | 0.21 | 82 | 1006.6 |
| 20260903020059 | 60 | 0 | 1.7 | 6.1 | 0.01 | 0.21 | 0.21 | 81 | 1006.3 |
| 20260903014556 | 60 | 165 | 1.7 | 5.2 | 0.01 | 0.21 | 0.21 | 81 | 1006.2 |
| 20260903013054 | 60 | 193 | 1.7 | 6.1 | 0.02 | 0.21 | 0.21 | 85 | 1006.1 |
| 20260903011611 | 60 | 191 | 0.9 | 6.1 | 0.01 | 0.20 | 0.20 | 86 | 1005.7 |
| 20260903010059 | 60 | 165 | 0.9 | 3.5 | 0.01 | 0.20 | 0.20 | 86 | 1005.6 |
| 20260903004557 | 60 | 175 | 0.9 | 3.5 | 0.01 | 0.20 | 0.20 | 86 | 1005.4 |
| 20260903003102 | 60 | 0 | 0.0 | 5.2 | 0.01 | 0.19 | 0.19 | 85 | 1005.3 |
| 20260903001600 | 60 | 0 | 0.0 | 1.7 | 0.01 | 0.19 | 0.19 | 83 | 1004.8 |
| 20260903000101 | 59 | 0 | 0.0 | 0.9 | 0.03 | 0.19 | 0.19 | 83 | 1005.0 |
| 20260902234557 | 59 | 0 | 0.0 | 1.7 | 0.05 | 0.19 | 0.19 | 84 | 1004.8 |
| 20260902233104 | 59 | 0 | 0.0 | 0.9 | 0.05 | 0.18 | 0.18 | 85 | 1005.0 |
| 20260902231609 | 60 | 0 | 0.0 | 0.9 | 0.07 | 0.18 | 0.18 | 85 | 1005.6 |
| 20260902230100 | 60 | 0 | 0.0 | 0.9 | 0.07 | 0.16 | 0.16 | 85 | 1005.5 |
| 20260902224601 | 60 | 0 | 0.0 | 0.9 | 0.07 | 0.14 | 0.14 | 85 | 1005.2 |
| 20260902223107 | 60 | 210 | 0.0 | 1.7 | 0.06 | 0.13 | 0.13 | 86 | 1005.3 |
| 20260902221601 | 61 | 0 | 0.0 | 1.7 | 0.05 | 0.11 | 0.11 | 86 | 1005.3 |
| 20260902220105 | 61 | 0 | 0.0 | 3.5 | 0.04 | 0.09 | 0.09 | 85 | 1005.2 |
| 20260902214602 | 62 | 160 | 0.9 | 3.5 | 0.02 | 0.07 | 0.07 | 83 | 1005.2 |
| 20260902213059 | 63 | 162 | 0.0 | 2.6 | 0.02 | 0.07 | 0.07 | 80 | 1005.4 |
| 20260902211604 | 64 | 150 | 0.9 | 2.6 | 0.01 | 0.06 | 0.06 | 78 | 1005.4 |
| 20260902210100 | 65 | 0 | 0.0 | 4.3 | 0.02 | 0.05 | 0.05 | 77 | 1005.3 |
| 20260902204605 | 64 | 165 | 0.0 | 1.7 | 0.05 | 0.05 | 0.05 | 81 | 1005.2 |
| 20260902203100 | 63 | 0 | 0.0 | 0.9 | 0.05 | 0.05 | 0.05 | 82 | 1005.3 |
| 20260902201557 | 63 | 203 | 0.0 | 1.7 | 0.05 | 0.05 | 0.05 | 83 | 1005.5 |
| 20260902200113 | 65 | 0 | 1.7 | 7.8 | 0.03 | 0.03 | 0.03 | 73 | 1005.6 |
| 20260902194600 | 69 | 179 | 2.6 | 12.2 | 0.00 | 0.00 | 0.00 | 58 | 1005.8 |
| 20260902193107 | 71 | 281 | 0.0 | 4.3 | 0.00 | 0.00 | 0.00 | 54 | 1005.4 |
| 20260902191604 | 70 | 188 | 0.9 | 2.6 | 0.00 | 0.00 | 0.00 | 55 | 1005.5 |
| 20260902190104 | 70 | 161 | 0.0 | 2.6 | 0.00 | 0.00 | 0.00 | 57 | 1005.6 |
| 20260902184658 | 69 | 178 | 0.0 | 1.7 | 0.00 | 0.00 | 0.00 | 59 | 1005.6 |
| 20260902183108 | 68 | 190 | 0.0 | 1.7 | 0.00 | 0.00 | 0.00 | 59 | 1005.8 |
| 20260902181604 | 67 | 0 | 0.0 | 3.5 | 0.00 | 0.00 | 0.00 | 63 | 1006.0 |
| 20260902180131 | 67 | 0 | 0.0 | 0.9 | 0.00 | 0.00 | 0.00 | 65 | 1006.2 |
| 20260902174601 | 66 | 0 | 0.0 | 1.7 | 0.00 | 0.00 | 0.00 | 66 | 1006.3 |
| 20260902173105 | 66 | 174 | 0.0 | 0.9 | 0.00 | 0.00 | 0.00 | 65 | 1006.4 |
| 20260902171606 | 66 | 0 | 0.0 | 1.7 | 0.00 | 0.00 | 0.00 | 68 | 1006.6 |
| 20260902164602 | 66 | 0 | 0.9 | 4.3 | 0.00 | 0.00 | 0.00 | 66 | 1006.8 |
| 20260902163105 | 66 | 181 | 0.0 | 1.7 | 0.00 | 0.00 | 0.00 | 67 | 1006.9 |
| 20260902161558 | 65 | 0 | 0.0 | 2.6 | 0.00 | 0.00 | 0.00 | 69 | 1006.9 |
| 20260902160104 | 64 | 0 | 0.0 | 0.9 | 0.00 | 0.00 | 0.00 | 76 | 1007.1 |
| 20260902154558 | 63 | 4 | 0.0 | 0.9 | 0.00 | 0.00 | 0.00 | 78 | 1007.2 |
| 20260902153101 | 61 | 0 | 0.0 | 0.9 | 0.00 | 0.00 | 0.00 | 80 | 1007.4 |
| 20260902151602 | 60 | 0 | 0.0 | 0.9 | 0.00 | 0.00 | 0.00 | 83 | 1007.7 |
| 20260902150058 | 59 | 0 | 0.0 | 0.0 | 0.00 | 0.00 | 0.00 | 85 | 1007.8 |
| 20260902144556 | 59 | 0 | 0.0 | 0.9 | 0.00 | 0.00 | 0.00 | 85 | 1008.0 |
| 20260902143107 | 58 | 0 | 0.0 | 0.0 | 0.00 | 0.00 | 0.00 | 86 | 1008.1 |
| 20260902141556 | 57 | 0 | 0.0 | 0.0 | 0.00 | 0.00 | 0.00 | 86 | 1008.2 |
| 20260902140056 | 57 | 0 | 0.0 | 0.0 | 0.00 | 0.00 | 0.00 | 86 | 1008.2 |
| 20260902134557 | 57 | 0 | 0.0 | 0.0 | 0.00 | 0.00 | 0.00 | 86 | 1008.2 |
| 20260902133057 | 58 | 0 | 0.0 | 0.0 | 0.00 | 0.00 | 0.00 | 86 | 1008.2 |
| 20260902131555 | 59 | 0 | 0.0 | 0.0 | 0.00 | 0.00 | 0.00 | 86 | 1008.3 |
| 20260902130105 | 59 | 0 | 0.0 | 0.0 | 0.00 | 0.00 | 0.00 | 86 | 1008.5 |
| 20260902124607 | 59 | 0 | 0.0 | 0.0 | 0.00 | 0.00 | 0.00 | 86 | 1008.5 |
| 20260902123102 | 59 | 0 | 0.0 | 0.0 | 0.00 | 0.00 | 0.00 | 86 | 1008.7 |
| 20260902121608 | 59 | 0 | 0.0 | 0.0 | 0.00 | 0.00 | 0.00 | 86 | 1008.6 |
| 20260902120104 | 59 | 0 | 0.0 | 0.0 | 0.00 | 0.00 | 0.00 | 86 | 1008.8 |
| 20260902114559 | 59 | 0 | 0.0 | 0.9 | 0.00 | 0.00 | 0.00 | 86 | 1008.9 |
| 20260902113111 | 58 | 0 | 0.0 | 0.0 | 0.00 | 0.00 | 0.00 | 86 | 1008.9 |
| 20260902111603 | 59 | 0 | 0.0 | 0.0 | 0.00 | 0.00 | 0.00 | 86 | 1009.1 |
| 20260902110121 | 59 | 180 | 0.0 | 0.0 | 0.00 | 0.00 | 0.00 | 86 | 1009.2 |
| 20260902104601 | 59 | 0 | 0.0 | 0.0 | 0.00 | 0.00 | 0.00 | 86 | 1009.2 |
| 20260902103102 | 59 | 0 | 0.0 | 0.0 | 0.00 | 0.00 | 0.00 | 86 | 1009.4 |
| 20260902101606 | 59 | 0 | 0.0 | 0.9 | 0.00 | 0.00 | 0.00 | 86 | 1009.6 |
| 20260902100110 | 59 | 0 | 0.0 | 0.0 | 0.00 | 0.00 | 0.00 | 86 | 1009.5 |
| 20260902094556 | 60 | 0 | 0.0 | 0.0 | 0.00 | 0.00 | 0.00 | 86 | 1009.5 |
| 20260902093057 | 60 | 0 | 0.0 | 0.0 | 0.00 | 0.00 | 0.00 | 86 | 1009.6 |
| 20260902091556 | 60 | 0 | 0.0 | 0.9 | 0.00 | 0.00 | 0.00 | 86 | 1009.6 |
| 20260902090056 | 61 | 0 | 0.0 | 0.0 | 0.00 | 0.00 | 0.00 | 85 | 1009.9 |
| 20260902084602 | 61 | 0 | 0.0 | 0.0 | 0.00 | 0.00 | 0.00 | 85 | 1010.1 |
| 20260902083100 | 61 | 0 | 0.0 | 0.0 | 0.00 | 0.00 | 0.00 | 85 | 1010.2 |
| 20260902081603 | 61 | 0 | 0.0 | 0.0 | 0.00 | 0.00 | 0.00 | 85 | 1010.2 |
| 20260902080054 | 61 | 0 | 0.0 | 0.0 | 0.00 | 0.00 | 0.00 | 85 | 1010.3 |
| 20260902074553 | 61 | 0 | 0.0 | 0.9 | 0.00 | 0.00 | 0.00 | 85 | 1010.3 |
| 20260902073058 | 61 | 0 | 0.0 | 0.0 | 0.00 | 0.00 | 0.00 | 85 | 1010.4 |
| 20260902071600 | 61 | 0 | 0.0 | 0.9 | 0.00 | 0.00 | 0.00 | 85 | 1010.4 |
| 20260902064610 | 61 | 0 | 0.0 | 0.9 | 0.00 | 0.00 | 0.00 | 85 | 1010.7 |
| 20260902063102 | 61 | 0 | 0.0 | 0.9 | 0.00 | 0.00 | 0.00 | 85 | 1010.7 |
| 20260902060114 | 61 | 0 | 0.0 | 0.9 | 0.00 | 0.00 | 0.00 | 84 | 1010.7 |
| 20260902054558 | 61 | 207 | 0.0 | 1.7 | 0.00 | 0.00 | 0.00 | 85 | 1010.8 |
| 20260902053112 | 61 | 0 | 0.0 | 0.0 | 0.00 | 0.00 | 0.00 | 85 | 1010.9 |
| 20260902051603 | 61 | 0 | 0.0 | 0.9 | 0.00 | 0.00 | 0.00 | 85 | 1010.9 |
| 20260902050121 | 61 | 0 | 0.0 | 0.0 | 0.00 | 0.00 | 0.00 | 85 | 1010.9 |
| 20260902044607 | 61 | 0 | 0.0 | 0.0 | 0.00 | 0.00 | 0.00 | 85 | 1010.8 |
| 20260902043105 | 61 | 0 | 0.0 | 0.9 | 0.00 | 0.00 | 0.00 | 85 | 1010.9 |